ONEWEB-0145 (47291 NORAD) Tracking and Keplerian Element Data

This shows tracking and keplerian element data for the satellite.

Feedback or suggestion? Click here.




ElementValue
Catalog47291
NameONEWEB-0145
Epoch Orbit178
Epoch Day15.91667824
Epoch Year2021
RAAN29.5769
Inclination87.4295
Eccentricity0.0013471
Argument of Perigee145.3008
Mean Anonmoly303.0698
Mean Motion15.25273612
Decay Rate-0.01359675
L11 47291U 20100AK 21015.91667824 -.01359675 00000-0 -59292-1 0 9994
L22 47291 87.4295 29.5769 0013471 145.3008 303.0698 15.25273612 1784

Live tracking and technical data element details for ONEWEB-0145 (NORAD 47291). ONEWEB-0145 can be tracked NOW for your location showing map with azimuth and elevation plus other details from your city location.

Track the satellite on the map from your city or location and see movement details for azimuth, elevation, latitude, longitude, range, height, and movement on the map or in text.







IsCatalogInMostPopularTable: catalog: 47291, numindb: 7
Update: records affected: 1



GetName: 47291 ONEWEB-0145

Hit Count: updated at: Sun, 17 Jan 2021 10:23:26 GMT